| time (UTC) | temp F | wind direction | speed MPH | gust MPH | rain 1hr in | rain 24hr in | rain mn in | humidity % | barometer mb |
| 20260503014529 | 59 | 211 | 2.0 | 3.0 | 0.00 | 0.00 | 0.00 | 29 | 1019.8 |
| 20260503014014 | 60 | 233 | 1.0 | 2.0 | 0.00 | 0.00 | 0.00 | 28 | 1019.7 |
| 20260503013514 | 61 | 230 | 0.0 | 2.0 | 0.00 | 0.00 | 0.00 | 27 | 1019.8 |
| 20260503013044 | 62 | 232 | 0.0 | 2.0 | 0.00 | 0.00 | 0.00 | 26 | 1019.7 |
| 20260503012513 | 63 | 243 | 0.0 | 2.0 | 0.00 | 0.00 | 0.00 | 25 | 1019.7 |
| 20260503012014 | 63 | 0 | 0.0 | 1.0 | 0.00 | 0.00 | 0.00 | 24 | 1019.7 |
| 20260503011537 | 63 | 286 | 0.0 | 1.0 | 0.00 | 0.00 | 0.00 | 25 | 1019.6 |
| 20260503011011 | 64 | 94 | 0.0 | 1.0 | 0.00 | 0.00 | 0.00 | 25 | 1019.6 |
| 20260503010515 | 64 | 0 | 0.0 | 4.0 | 0.00 | 0.00 | 0.00 | 24 | 1019.6 |
| 20260503010038 | 64 | 0 | 0.0 | 4.0 | 0.00 | 0.00 | 0.00 | 24 | 1019.7 |
| 20260503005513 | 63 | 181 | 2.0 | 4.0 | 0.00 | 0.00 | 0.00 | 24 | 1019.8 |
| 20260503005013 | 63 | 230 | 1.0 | 4.0 | 0.00 | 0.00 | 0.00 | 25 | 1019.8 |
| 20260503004533 | 62 | 251 | 2.0 | 4.0 | 0.00 | 0.00 | 0.00 | 26 | 1019.7 |
| 20260503004013 | 62 | 285 | 1.0 | 4.0 | 0.00 | 0.00 | 0.00 | 26 | 1019.7 |
| 20260503003512 | 61 | 309 | 1.0 | 4.0 | 0.00 | 0.00 | 0.00 | 26 | 1019.8 |
| 20260503003033 | 59 | 295 | 0.0 | 4.0 | 0.00 | 0.00 | 0.00 | 29 | 1019.9 |
| 20260503002514 | 60 | 306 | 0.0 | 6.0 | 0.00 | 0.00 | 0.00 | 28 | 1019.8 |
| 20260503002012 | 60 | 266 | 3.0 | 7.0 | 0.00 | 0.00 | 0.00 | 26 | 1019.9 |
| 20260503001532 | 61 | 283 | 2.0 | 7.0 | 0.00 | 0.00 | 0.00 | 27 | 1019.9 |
| 20260503001014 | 61 | 288 | 4.0 | 6.0 | 0.00 | 0.00 | 0.00 | 26 | 1019.9 |
| 20260503000512 | 62 | 270 | 4.0 | 6.0 | 0.00 | 0.00 | 0.00 | 26 | 1019.9 |
| 20260503000031 | 60 | 283 | 3.0 | 6.0 | 0.00 | 0.00 | 0.00 | 28 | 1020.0 |
| 20260502235514 | 60 | 256 | 3.0 | 6.0 | 0.00 | 0.00 | 0.00 | 27 | 1020.0 |
| 20260502235015 | 61 | 269 | 4.0 | 9.0 | 0.00 | 0.00 | 0.00 | 27 | 1019.9 |
| 20260502234533 | 61 | 259 | 4.0 | 12.0 | 0.00 | 0.00 | 0.00 | 26 | 1019.9 |
| 20260502234012 | 61 | 280 | 7.0 | 12.0 | 0.00 | 0.00 | 0.00 | 26 | 1020.0 |
| 20260502233512 | 62 | 281 | 7.0 | 12.0 | 0.00 | 0.00 | 0.00 | 26 | 1019.9 |
| 20260502233030 | 63 | 260 | 3.0 | 8.0 | 0.00 | 0.00 | 0.00 | 25 | 1019.9 |
| 20260502232512 | 64 | 264 | 4.0 | 9.0 | 0.00 | 0.00 | 0.00 | 24 | 1020.0 |
| 20260502232012 | 64 | 255 | 6.0 | 13.0 | 0.00 | 0.00 | 0.00 | 25 | 1019.9 |
| 20260502231530 | 64 | 261 | 6.0 | 13.0 | 0.00 | 0.00 | 0.00 | 26 | 1020.0 |
| 20260502231014 | 63 | 271 | 6.0 | 17.0 | 0.00 | 0.00 | 0.00 | 26 | 1019.9 |
| 20260502230514 | 62 | 257 | 3.0 | 17.0 | 0.00 | 0.00 | 0.00 | 24 | 1020.0 |
| 20260502230032 | 62 | 267 | 10.0 | 17.0 | 0.00 | 0.00 | 0.00 | 25 | 1020.0 |
| 20260502225512 | 63 | 328 | 2.0 | 9.0 | 0.00 | 0.00 | 0.00 | 25 | 1019.9 |
| 20260502225012 | 63 | 258 | 4.0 | 10.0 | 0.00 | 0.00 | 0.00 | 25 | 1020.1 |
| 20260502224529 | 62 | 0 | 3.0 | 15.0 | 0.00 | 0.00 | 0.00 | 24 | 1020.1 |
| 20260502224010 | 63 | 293 | 6.0 | 15.0 | 0.00 | 0.00 | 0.00 | 24 | 1020.2 |
| 20260502223512 | 64 | 305 | 8.0 | 12.0 | 0.00 | 0.00 | 0.00 | 26 | 1020.2 |
| 20260502223032 | 64 | 291 | 6.0 | 12.0 | 0.00 | 0.00 | 0.00 | 25 | 1020.3 |
| 20260502222512 | 63 | 219 | 3.0 | 15.0 | 0.00 | 0.00 | 0.00 | 25 | 1020.4 |
| 20260502222012 | 63 | 288 | 9.0 | 15.0 | 0.00 | 0.00 | 0.00 | 25 | 1020.4 |
| 20260502221531 | 64 | 298 | 10.0 | 15.0 | 0.00 | 0.00 | 0.00 | 25 | 1020.5 |
| 20260502221012 | 63 | 248 | 9.0 | 15.0 | 0.00 | 0.00 | 0.00 | 24 | 1020.6 |
| 20260502220514 | 63 | 274 | 9.0 | 15.0 | 0.00 | 0.00 | 0.00 | 25 | 1020.7 |
| 20260502220032 | 64 | 293 | 9.0 | 14.0 | 0.00 | 0.00 | 0.00 | 25 | 1020.7 |
| 20260502215516 | 63 | 197 | 7.0 | 14.0 | 0.00 | 0.00 | 0.00 | 26 | 1020.7 |
| 20260502215014 | 63 | 190 | 10.0 | 14.0 | 0.00 | 0.00 | 0.00 | 25 | 1020.8 |
| 20260502214537 | 64 | 264 | 5.0 | 14.0 | 0.00 | 0.00 | 0.00 | 25 | 1020.9 |
| 20260502214015 | 63 | 40 | 6.0 | 14.0 | 0.00 | 0.00 | 0.00 | 26 | 1021.0 |
| 20260502213515 | 63 | 326 | 4.0 | 12.0 | 0.00 | 0.00 | 0.00 | 26 | 1021.1 |
| 20260502213032 | 62 | 242 | 6.0 | 18.0 | 0.00 | 0.00 | 0.00 | 28 | 1021.1 |
| 20260502212515 | 63 | 276 | 12.0 | 18.0 | 0.00 | 0.00 | 0.00 | 25 | 1021.3 |
| 20260502212016 | 63 | 265 | 7.0 | 15.0 | 0.00 | 0.00 | 0.00 | 26 | 1021.3 |
| 20260502211534 | 62 | 285 | 6.0 | 17.0 | 0.00 | 0.00 | 0.00 | 27 | 1021.3 |
| 20260502211016 | 63 | 268 | 9.0 | 17.0 | 0.00 | 0.00 | 0.00 | 24 | 1021.5 |
| 20260502210517 | 62 | 274 | 4.0 | 12.0 | 0.00 | 0.00 | 0.00 | 27 | 1021.3 |
| 20260502210041 | 62 | 248 | 8.0 | 16.0 | 0.00 | 0.00 | 0.00 | 26 | 1021.5 |
| 20260502205518 | 61 | 298 | 9.0 | 16.0 | 0.00 | 0.00 | 0.00 | 26 | 1021.7 |
| 20260502205016 | 61 | 297 | 6.0 | 18.0 | 0.00 | 0.00 | 0.00 | 25 | 1021.7 |
| 20260502204533 | 62 | 289 | 10.0 | 18.0 | 0.00 | 0.00 | 0.00 | 25 | 1021.7 |
| 20260502204014 | 61 | 336 | 4.0 | 11.0 | 0.00 | 0.00 | 0.00 | 27 | 1021.6 |
| 20260502203514 | 61 | 313 | 8.0 | 16.0 | 0.00 | 0.00 | 0.00 | 28 | 1021.6 |
| 20260502203036 | 62 | 293 | 10.0 | 16.0 | 0.00 | 0.00 | 0.00 | 26 | 1021.6 |
| 20260502202518 | 62 | 295 | 7.0 | 14.0 | 0.00 | 0.00 | 0.00 | 26 | 1021.7 |
| 20260502202016 | 62 | 267 | 3.0 | 12.0 | 0.00 | 0.00 | 0.00 | 26 | 1021.8 |
| 20260502201532 | 61 | 204 | 2.0 | 12.0 | 0.00 | 0.00 | 0.00 | 28 | 1021.8 |
| 20260502201016 | 61 | 212 | 5.0 | 18.0 | 0.00 | 0.00 | 0.00 | 25 | 1022.0 |
| 20260502200517 | 62 | 270 | 10.0 | 18.0 | 0.00 | 0.00 | 0.00 | 27 | 1021.9 |
| 20260502200035 | 61 | 278 | 6.0 | 18.0 | 0.00 | 0.00 | 0.00 | 28 | 1021.9 |
| 20260502195515 | 61 | 335 | 3.0 | 7.0 | 0.00 | 0.00 | 0.00 | 27 | 1021.9 |
| 20260502195012 | 62 | 231 | 2.0 | 6.0 | 0.00 | 0.00 | 0.00 | 26 | 1022.0 |
| 20260502194532 | 62 | 292 | 1.0 | 12.0 | 0.00 | 0.00 | 0.00 | 27 | 1022.1 |
| 20260502194014 | 61 | 153 | 3.0 | 12.0 | 0.00 | 0.00 | 0.00 | 28 | 1022.1 |
| 20260502193515 | 61 | 256 | 6.0 | 12.0 | 0.00 | 0.00 | 0.00 | 30 | 1022.1 |
| 20260502193031 | 60 | 300 | 6.0 | 13.0 | 0.00 | 0.00 | 0.00 | 28 | 1022.1 |
| 20260502192513 | 60 | 275 | 6.0 | 13.0 | 0.00 | 0.00 | 0.00 | 28 | 1022.1 |
| 20260502192015 | 60 | 323 | 7.0 | 12.0 | 0.00 | 0.00 | 0.00 | 29 | 1022.3 |
| 20260502191534 | 60 | 328 | 4.0 | 11.0 | 0.00 | 0.00 | 0.00 | 27 | 1022.4 |
| 20260502191012 | 59 | 288 | 3.0 | 11.0 | 0.00 | 0.00 | 0.00 | 29 | 1022.5 |
| 20260502190513 | 59 | 297 | 8.0 | 11.0 | 0.00 | 0.00 | 0.00 | 29 | 1022.6 |
| 20260502190035 | 59 | 287 | 3.0 | 8.0 | 0.00 | 0.00 | 0.00 | 27 | 1022.7 |
| 20260502185514 | 59 | 43 | 4.0 | 9.0 | 0.00 | 0.00 | 0.00 | 27 | 1022.7 |
| 20260502185016 | 58 | 70 | 2.0 | 9.0 | 0.00 | 0.00 | 0.00 | 28 | 1023.0 |
| 20260502184535 | 58 | 334 | 5.0 | 10.0 | 0.00 | 0.00 | 0.00 | 29 | 1023.1 |
| 20260502184021 | 58 | 330 | 5.0 | 10.0 | 0.00 | 0.00 | 0.00 | 29 | 1023.2 |
| 20260502183516 | 58 | 293 | 5.0 | 10.0 | 0.00 | 0.00 | 0.00 | 29 | 1023.1 |
| 20260502183032 | 58 | 324 | 4.0 | 11.0 | 0.00 | 0.00 | 0.00 | 28 | 1023.2 |
| 20260502182515 | 58 | 336 | 5.0 | 11.0 | 0.00 | 0.00 | 0.00 | 27 | 1023.3 |
| 20260502182016 | 58 | 278 | 3.0 | 11.0 | 0.00 | 0.00 | 0.00 | 28 | 1023.3 |
| 20260502181532 | 58 | 278 | 3.0 | 11.0 | 0.00 | 0.00 | 0.00 | 28 | 1023.4 |
| 20260502181014 | 59 | 267 | 5.0 | 11.0 | 0.00 | 0.00 | 0.00 | 28 | 1023.4 |
| 20260502180514 | 58 | 91 | 2.0 | 9.0 | 0.00 | 0.00 | 0.00 | 29 | 1023.5 |
| 20260502170514 | 55 | 210 | 4.0 | 10.0 | 0.00 | 0.00 | 0.00 | 33 | 1023.8 |
| 20260502164014 | 54 | 280 | 5.0 | 9.0 | 0.00 | 0.00 | 0.00 | 35 | 1023.8 |
| 20260502163517 | 54 | 293 | 4.0 | 7.0 | 0.00 | 0.00 | 0.00 | 37 | 1023.7 |
| 20260502163035 | 54 | 274 | 2.0 | 12.0 | 0.00 | 0.00 | 0.00 | 37 | 1023.6 |
| 20260502162514 | 54 | 269 | 7.0 | 12.0 | 0.00 | 0.00 | 0.00 | 36 | 1023.7 |
| 20260502162014 | 53 | 238 | 4.0 | 11.0 | 0.00 | 0.00 | 0.00 | 36 | 1023.8 |
| 20260502161530 | 53 | 293 | 2.0 | 10.0 | 0.00 | 0.00 | 0.00 | 38 | 1023.7 |
| 20260502161013 | 53 | 330 | 5.0 | 10.0 | 0.00 | 0.00 | 0.00 | 37 | 1023.8 |
| 20260502160514 | 52 | 269 | 3.0 | 9.0 | 0.00 | 0.00 | 0.00 | 37 | 1023.8 |
| 20260502152016 | 52 | 185 | 1.0 | 5.0 | 0.00 | 0.00 | 0.00 | 39 | 1023.9 |
| 20260502151532 | 51 | 273 | 1.0 | 5.0 | 0.00 | 0.00 | 0.00 | 38 | 1024.0 |
| 20260502151016 | 52 | 328 | 2.0 | 4.0 | 0.00 | 0.00 | 0.00 | 38 | 1023.8 |
| 20260502150515 | 52 | 112 | 0.0 | 3.0 | 0.00 | 0.00 | 0.00 | 38 | 1023.8 |
| 20260502130515 | 34 | 89 | 6.0 | 9.0 | 0.00 | 0.00 | 0.00 | 68 | 1023.3 |
| 20260502123516 | 31 | 96 | 6.0 | 8.0 | 0.00 | 0.00 | 0.00 | 73 | 1022.7 |
| 20260502123040 | 30 | 94 | 6.0 | 8.0 | 0.00 | 0.00 | 0.00 | 75 | 1022.8 |
| 20260502122513 | 30 | 89 | 5.0 | 8.0 | 0.00 | 0.00 | 0.00 | 74 | 1022.7 |
| 20260502122014 | 31 | 91 | 7.0 | 8.0 | 0.00 | 0.00 | 0.00 | 74 | 1022.7 |
| 20260502121533 | 30 | 95 | 6.0 | 9.0 | 0.00 | 0.00 | 0.00 | 74 | 1022.7 |
| 20260502121014 | 31 | 106 | 6.0 | 9.0 | 0.00 | 0.00 | 0.00 | 74 | 1022.5 |
| 20260502120514 | 30 | 106 | 6.0 | 9.0 | 0.00 | 0.00 | 0.00 | 75 | 1022.5 |
| 20260502115513 | 31 | 100 | 4.0 | 6.0 | 0.00 | 0.00 | 0.00 | 74 | 1022.3 |
| 20260502115015 | 31 | 96 | 4.0 | 6.0 | 0.00 | 0.00 | 0.00 | 74 | 1022.4 |
| 20260502114549 | 30 | 108 | 3.0 | 6.0 | 0.00 | 0.00 | 0.00 | 76 | 1022.4 |
| 20260502114014 | 30 | 94 | 3.0 | 6.0 | 0.00 | 0.00 | 0.00 | 74 | 1022.3 |
| 20260502113512 | 30 | 122 | 4.0 | 6.0 | 0.00 | 0.00 | 0.00 | 75 | 1022.3 |
| 20260502113034 | 31 | 105 | 4.0 | 6.0 | 0.00 | 0.00 | 0.00 | 74 | 1022.3 |
| 20260502112513 | 30 | 115 | 3.0 | 5.0 | 0.00 | 0.00 | 0.00 | 73 | 1022.3 |
| 20260502112013 | 30 | 107 | 4.0 | 7.0 | 0.00 | 0.00 | 0.00 | 73 | 1022.2 |
| 20260502111533 | 30 | 106 | 4.0 | 7.0 | 0.00 | 0.00 | 0.00 | 75 | 1022.2 |
| 20260502111013 | 30 | 90 | 5.0 | 7.0 | 0.00 | 0.00 | 0.00 | 75 | 1022.1 |
| 20260502110516 | 30 | 103 | 5.0 | 6.0 | 0.00 | 0.00 | 0.00 | 76 | 1022.1 |
| 20260502110034 | 30 | 101 | 4.0 | 7.0 | 0.00 | 0.00 | 0.00 | 77 | 1022.1 |
| 20260502105516 | 30 | 94 | 4.0 | 7.0 | 0.00 | 0.00 | 0.00 | 74 | 1022.1 |
| 20260502105014 | 31 | 108 | 5.0 | 7.0 | 0.00 | 0.00 | 0.00 | 74 | 1022.1 |
| 20260502104531 | 31 | 111 | 5.0 | 6.0 | 0.00 | 0.00 | 0.00 | 76 | 1022.0 |
| 20260502104014 | 30 | 124 | 3.0 | 4.0 | 0.00 | 0.00 | 0.00 | 76 | 1022.1 |
| 20260502103516 | 31 | 113 | 3.0 | 5.0 | 0.00 | 0.00 | 0.00 | 75 | 1022.1 |
| 20260502103030 | 31 | 108 | 3.0 | 5.0 | 0.00 | 0.00 | 0.00 | 76 | 1022.1 |
| 20260502102514 | 30 | 110 | 4.0 | 5.0 | 0.00 | 0.00 | 0.00 | 76 | 1022.1 |
| 20260502102017 | 31 | 122 | 3.0 | 7.0 | 0.00 | 0.00 | 0.00 | 75 | 1022.0 |
| 20260502101536 | 31 | 110 | 4.0 | 7.0 | 0.00 | 0.00 | 0.00 | 76 | 1021.9 |
| 20260502101013 | 31 | 114 | 5.0 | 7.0 | 0.00 | 0.00 | 0.00 | 76 | 1021.8 |
| 20260502100513 | 30 | 120 | 4.0 | 6.0 | 0.00 | 0.00 | 0.00 | 77 | 1021.8 |
| 20260502091533 | 32 | 132 | 3.0 | 6.0 | 0.00 | 0.00 | 0.00 | 74 | 1021.5 |
| 20260502091014 | 33 | 123 | 3.0 | 6.0 | 0.00 | 0.00 | 0.00 | 74 | 1021.5 |
| 20260502090513 | 33 | 110 | 4.0 | 7.0 | 0.00 | 0.00 | 0.00 | 75 | 1021.5 |
| 20260502071532 | 38 | 68 | 6.0 | 8.0 | 0.00 | 0.00 | 0.00 | 66 | 1021.1 |
| 20260502071013 | 38 | 67 | 5.0 | 7.0 | 0.00 | 0.00 | 0.00 | 66 | 1021.2 |
| 20260502070514 | 38 | 63 | 4.0 | 7.0 | 0.00 | 0.00 | 0.00 | 66 | 1021.1 |
| 20260502070034 | 38 | 72 | 4.0 | 8.0 | 0.00 | 0.00 | 0.00 | 66 | 1021.1 |
| 20260502065514 | 38 | 75 | 6.0 | 8.0 | 0.00 | 0.00 | 0.00 | 67 | 1021.0 |
| 20260502065014 | 38 | 89 | 5.0 | 7.0 | 0.00 | 0.00 | 0.00 | 67 | 1020.9 |
| 20260502064541 | 37 | 87 | 5.0 | 7.0 | 0.00 | 0.00 | 0.00 | 68 | 1020.9 |
| 20260502064012 | 37 | 92 | 4.0 | 7.0 | 0.00 | 0.00 | 0.00 | 68 | 1021.0 |
| 20260502063513 | 37 | 102 | 4.0 | 7.0 | 0.00 | 0.00 | 0.00 | 68 | 1021.0 |
| 20260502063031 | 38 | 107 | 5.0 | 9.0 | 0.00 | 0.00 | 0.00 | 67 | 1020.9 |
| 20260502062512 | 38 | 86 | 5.0 | 9.0 | 0.00 | 0.00 | 0.00 | 66 | 1020.7 |
| 20260502062013 | 38 | 84 | 6.0 | 8.0 | 0.00 | 0.00 | 0.00 | 67 | 1020.6 |
| 20260502061531 | 37 | 101 | 5.0 | 7.0 | 0.00 | 0.00 | 0.00 | 68 | 1020.6 |
| 20260502061014 | 38 | 87 | 3.0 | 7.0 | 0.00 | 0.00 | 0.00 | 66 | 1020.9 |
| 20260502060512 | 38 | 89 | 5.0 | 7.0 | 0.00 | 0.00 | 0.00 | 66 | 1020.8 |
| 20260502060041 | 37 | 100 | 5.0 | 7.0 | 0.00 | 0.00 | 0.00 | 67 | 1020.7 |
| 20260502055514 | 37 | 91 | 5.0 | 6.0 | 0.00 | 0.00 | 0.00 | 66 | 1020.7 |
| 20260502055014 | 37 | 70 | 4.0 | 6.0 | 0.00 | 0.00 | 0.00 | 67 | 1020.5 |
| 20260502054529 | 38 | 75 | 4.0 | 9.0 | 0.00 | 0.00 | 0.00 | 66 | 1020.4 |
| 20260502054014 | 38 | 74 | 5.0 | 9.0 | 0.00 | 0.00 | 0.00 | 67 | 1020.3 |
| 20260502053516 | 38 | 90 | 7.0 | 9.0 | 0.00 | 0.00 | 0.00 | 66 | 1020.1 |
| 20260502053034 | 37 | 84 | 6.0 | 8.0 | 0.00 | 0.00 | 0.00 | 67 | 1020.2 |
| 20260502052513 | 37 | 89 | 6.0 | 7.0 | 0.00 | 0.00 | 0.00 | 67 | 1020.1 |
| 20260502052014 | 37 | 89 | 4.0 | 10.0 | 0.00 | 0.00 | 0.00 | 67 | 1020.2 |
| 20260502051535 | 38 | 113 | 5.0 | 10.0 | 0.00 | 0.00 | 0.00 | 65 | 1020.0 |
| 20260502051013 | 39 | 86 | 7.0 | 9.0 | 0.00 | 0.00 | 0.00 | 64 | 1020.0 |
| 20260502050513 | 39 | 90 | 7.0 | 9.0 | 0.00 | 0.00 | 0.00 | 63 | 1019.9 |
| 20260502050033 | 39 | 93 | 7.0 | 9.0 | 0.00 | 0.00 | 0.00 | 63 | 1020.0 |
| 20260502045513 | 39 | 105 | 7.0 | 10.0 | 0.00 | 0.00 | 0.00 | 63 | 1020.0 |
| 20260502045013 | 40 | 114 | 7.0 | 10.0 | 0.00 | 0.00 | 0.00 | 62 | 1020.0 |
| 20260502044531 | 40 | 86 | 7.0 | 10.0 | 0.00 | 0.00 | 0.00 | 62 | 1020.1 |
| 20260502044013 | 40 | 97 | 6.0 | 10.0 | 0.00 | 0.00 | 0.00 | 61 | 1020.0 |
| 20260502043515 | 41 | 98 | 6.0 | 12.0 | 0.00 | 0.00 | 0.00 | 60 | 1019.9 |
| 20260502043039 | 41 | 94 | 7.0 | 13.0 | 0.00 | 0.00 | 0.00 | 59 | 1020.1 |
| 20260502042513 | 42 | 89 | 9.0 | 13.0 | 0.00 | 0.00 | 0.00 | 57 | 1020.1 |
| 20260502042016 | 42 | 105 | 10.0 | 13.0 | 0.00 | 0.00 | 0.00 | 57 | 1020.1 |
| 20260502041534 | 43 | 96 | 9.0 | 13.0 | 0.00 | 0.00 | 0.00 | 57 | 1020.1 |
| 20260502041013 | 43 | 101 | 10.0 | 13.0 | 0.00 | 0.00 | 0.00 | 56 | 1020.0 |
| 20260502040515 | 43 | 102 | 9.0 | 12.0 | 0.00 | 0.00 | 0.00 | 57 | 1019.9 |
| 20260502040032 | 43 | 91 | 9.0 | 13.0 | 0.00 | 0.00 | 0.00 | 56 | 1019.8 |
| 20260502035516 | 43 | 94 | 8.0 | 14.0 | 0.00 | 0.00 | 0.00 | 56 | 1019.9 |
| 20260502035014 | 44 | 107 | 10.0 | 16.0 | 0.00 | 0.00 | 0.00 | 55 | 1019.9 |
| 20260502034533 | 44 | 102 | 10.0 | 16.0 | 0.00 | 0.00 | 0.00 | 54 | 1019.7 |
| 20260502034014 | 44 | 111 | 9.0 | 13.0 | 0.00 | 0.00 | 0.00 | 54 | 1019.7 |
| 20260502033528 | 44 | 88 | 8.0 | 12.0 | 0.00 | 0.00 | 0.00 | 54 | 1019.7 |
| 20260502033034 | 44 | 96 | 9.0 | 12.0 | 0.00 | 0.00 | 0.00 | 54 | 1019.6 |
| 20260502032513 | 45 | 93 | 9.0 | 12.0 | 0.00 | 0.00 | 0.00 | 53 | 1019.6 |
| 20260502032015 | 45 | 96 | 9.0 | 11.0 | 0.00 | 0.00 | 0.00 | 53 | 1019.6 |
| 20260502031533 | 45 | 95 | 8.0 | 13.0 | 0.00 | 0.00 | 0.00 | 53 | 1019.6 |
| 20260502031014 | 45 | 86 | 9.0 | 13.0 | 0.00 | 0.00 | 0.00 | 52 | 1019.4 |
| 20260502030514 | 45 | 86 | 10.0 | 13.0 | 0.00 | 0.00 | 0.00 | 52 | 1019.2 |
| 20260502030032 | 45 | 80 | 8.0 | 12.0 | 0.00 | 0.00 | 0.00 | 53 | 1019.1 |
| 20260502025513 | 45 | 89 | 8.0 | 13.0 | 0.00 | 0.00 | 0.00 | 52 | 1019.2 |
| 20260502025013 | 45 | 81 | 9.0 | 13.0 | 0.00 | 0.00 | 0.00 | 52 | 1019.0 |
| 20260502024533 | 45 | 88 | 9.0 | 13.0 | 0.00 | 0.00 | 0.00 | 51 | 1018.8 |
| 20260502024015 | 45 | 79 | 8.0 | 12.0 | 0.00 | 0.00 | 0.00 | 51 | 1018.8 |
| 20260502023515 | 46 | 88 | 8.0 | 12.0 | 0.00 | 0.00 | 0.00 | 50 | 1018.7 |
| 20260502023034 | 46 | 86 | 8.0 | 12.0 | 0.00 | 0.00 | 0.00 | 50 | 1018.6 |
| 20260502022513 | 46 | 81 | 9.0 | 13.0 | 0.00 | 0.00 | 0.00 | 49 | 1018.5 |
| 20260502022015 | 47 | 89 | 9.0 | 13.0 | 0.00 | 0.00 | 0.00 | 47 | 1018.4 |
| 20260502021532 | 48 | 89 | 9.0 | 12.0 | 0.00 | 0.00 | 0.00 | 46 | 1018.4 |
| 20260502021013 | 49 | 68 | 5.0 | 7.0 | 0.00 | 0.00 | 0.00 | 43 | 1018.3 |
| 20260502020513 | 50 | 87 | 3.0 | 8.0 | 0.00 | 0.00 | 0.00 | 41 | 1018.1 |
| 20260502020034 | 51 | 99 | 5.0 | 8.0 | 0.00 | 0.00 | 0.00 | 38 | 1018.1 |
| 20260502015517 | 52 | 98 | 5.0 | 8.0 | 0.00 | 0.00 | 0.00 | 39 | 1018.0 |
| 20260502015015 | 52 | 132 | 6.0 | 8.0 | 0.00 | 0.00 | 0.00 | 38 | 1017.9 |